www.pogodaiklimat.ru

Погода и климат >> Архив погоды >> Аргентина >> Las Flores


ПОГОДА в Las Flores

  • Прогноз погоды в Las Flores
  • Монитор погоды в Las Flores
  • Климат города

АРХИВ ПОГОДЫ в Las Flores

Время (UTC), дата Ветер
(напр.,м/с)
 
Видим.   Явления Облачность Т
(С)
Тd
(С)
f
(%)
Тe
(С)
Тes
(С)
Комфортность P
(гПа)
Po
(гПа)
Тmin
(С)
Tmax
(С)
R
(мм)
R24
(мм)
S
(см)
09 10.12 З 1 15 км 3/0
[Ci fib]
+10.8 +8.2 84 +10 +11 1006.8 1002.6
12 10.12 З 2 15 км ясно +18.3 +7.8 50 +19 +27 1006.5 1002.2 +10.5 +20.8
15 10.12 З 5 15 км ясно +25.3 +9.4 37 +26 +36 жарко 1007.0 1002.8
18 10.12 Ю 10 15 км 1/1 750 м
[Cu hum]
+28.2 +6.6 25 +27 +28 жарко 1005.3 1001.0
21 10.12 Ю 10 15 км ясно +25.4 +0.3 19 +24 +24 комфорт 1007.3 1003.0
00 11.12 Ю 6 15 км ясно +18.4 +4.3 39 +18 +18 1011.9 1007.6 +18.3 +29.0
09 11.12 штиль 0 15 км ясно +6.4 +4.3 86 +5 +6 1018.4 1014.1
12 11.12 В 1 15 км ясно +15.8 +6.5 54 +17 +26 1019.0 1014.6 +6.0 +18.4
15 11.12 В 1 15 км ясно +19.7 +7.8 46 +22 +45 комфорт 1019.3 1015.0
18 11.12 штиль 0 15 км ясно +15.8 +0.7 36 +16 +39 опасность
простуды
1015.7 1011.4
21 11.12 В 1 15 км ясно +24.2 -1.6 18 +23 +27 комфорт 1013.0 1008.6
00 12.12 штиль 0 15 км 3/0
[Ci fib]
+19.6 +6.9 44 +20 +20 1012.7 1008.4 +15.8 +25.8
09 12.12 СЗ 2 15 км 5/0
[Ci]
+12.5 +10.6 88 +12 +12 1013.6 1009.3
12 12.12 З 5 15 км 5/0
[Ci]
+21.0 +10.5 51 +23 +27 комфорт 1013.5 1009.3 +11.5 +21.0
15 12.12 З 5 15 км 5/0
[Ci]
+25.4 +12.4 44 +27 +36 жарко 1013.2 1008.9
18 12.12 З 5 15 км 6/0
[Ci]
+30.0 +4.3 20 +28 +36 жарко 1009.4 1005.3
21 12.12 З 2 15 км 6/0
[Ci]
+30.4 +4.8 20 +29 +32 жарко 1008.4 1004.2
00 13.12 З 1 15 км 6/0
[Ci]
+25.4 +11.2 41 +27 +27 жарко 1008.3 1004.1 +21.0 +31.0
09 13.12 С 2 15 км 9/0
[Ac trans]
+18.0 +15.5 85 +19 +19 1011.3 1007.2
12 13.12 штиль 0 15 км 10/0 2000 м
[As op]
+24.2 +14.4 54 +27 +29 жарко 1011.4 1007.2 +17.5 +25.4
15 13.12 штиль 0 15 км 10/10 750 м
[Frnb]
+27.0 +15.7 50 +30 +30 душно 1011.9 1007.8
18 13.12 штиль 0 15 км 10/10 750 м
[Sc]
+27.3 +12.6 40 +29 +29 жарко 1011.8 1007.6
21 13.12 ЮВ 1 15 км {дождь} 10/10 750 м
[Sc]
+20.4 +17.5 83 +25 +25 комфорт 1010.2 1006.0
00 14.12 В 1 15 км {туман} 10/10 750 м
[Frnb]
+20.2 +17.1 82 +24 +24 комфорт 1009.6 1005.4 +20.2 +28.7 26
09 14.12 Ю 2 15 км ясно +15.4 +14.0 91 +15 +15 1011.5 1007.3
12 14.12 ЮЗ 2 15 км 5/0
[Ac trans]
+20.0 +15.5 75 +23 +29 комфорт 1011.9 1007.7 +15.0 +20.2 7
15 14.12 ЮЗ 2 15 км ясно +26.0 +16.9 57 +30 +50 душно 1012.1 1008.0
18 14.12 ЮЗ 5 15 км 4/3 750 м
[Cu hum Ci]
+30.4 +6.7 23 +29 +35 жарко 1009.7 1005.6
21 14.12 ЮЗ 2 15 км 4/0
[Ci]
+30.8 +8.8 25 +30 +33 жарко 1007.6 1003.4
00 15.12 штиль 0 15 км 1/0
[Ci fib]
+24.2 +11.2 44 +26 +26 жарко 1007.9 1003.7 +20.0 +32.1
09 15.12 ЮЗ 1 15 км 1/0
[Ci]
+16.8 +12.1 74 +18 +18 1009.7 1005.6
12 15.12 ЮЗ 1 15 км 1/0
[Ci]
+26.8 +14.9 48 +29 +36 жарко 1010.2 1006.1 +6.8 +26.8
15 15.12 ЮЗ 1 15 км 5/0
[Ci]
+32.0 +14.8 35 +34 +55 опасность
солнечного
удара
1010.4 1006.2
18 15.12 ЮЗ 2 15 км 10/10 750 м
[Sc]
+32.4 +10.0 25 +32 +32 жарко 1007.3 1003.2
21 15.12 З 1 15 км 1/0
[Ci]
+34.0 +10.0 23 +33 +37 жарко 1004.5 1000.4
00 16.12 З 1 15 км ясно +28.8 +12.2 36 +30 +30 жарко 1003.4 999.3 +26.8 +35.0
09 16.12 С 2 15 км ясно +22.4 +14.7 62 +26 +26 жарко 1003.5 999.4
12 16.12 С 1 15 км ясно +29.4 +16.0 44 +32 +42 душно 1003.6 999.6 +21.5 +29.4
15 16.12 С 10 15 км 5/3 750 м
[Sc diur, vesp Ci]
+32.7 +17.0 39 +36 +37 очень
душно
1001.9 997.8
18 16.12 С 6 15 км 9/9 750 м
[Sc]
+26.0 +19.8 69 +32 +32 очень
душно
999.1 995.0 0.0
21 16.12 С 2 15 км 10/10 750 м
[Frnb]
+24.0 +19.2 75 +29 +29 душно 996.2 992.1

 

Местоположение метеостанции Las Flores (Аргентина): широта -36.07 долгота -59.10 высота над уровнем моря 38 м.

В архиве по умолчанию представлена погода в Las Flores за последнюю неделю. Архивные данные за месяц целиком и за предыдущие месяцы, начиная с января 2011 года, Вы можете получить, выбрав интересующий диапазон дат из раскрывающегося списка и нажав кнопку "Ввод!".

Внимание! Время в таблицах - всемирное. Для получения местного времени необходимо прибавить поправку, которая в Las Flores равна -3 ч.

Смотрите также архив погоды в соседних городах и на ближайших метеорологических станциях:

Погода в Azul (Аргентина) (110 км)
Погода в Dolores (Аргентина) (127 км)
Погода в Tandil (Аргентина) (130 км)
Погода в Ezeiza (Аргентина) (149 км)
Погода в La Plata (Аргентина) (164 км)
Погода в Buenos Aires (Аргентина) (175 км)
Погода в Bolivar (Аргентина) (178 км)
Погода в Buenos Aires Aeropuerto (Аргентина) (179 км)
Погода в Colonia (Уругвай) (214 км)
Погода в Junin (Аргентина) (236 км)

Пояснения к столбцам:

Ветер - указаны скорость ветра в м/с - средняя за 10 мин, порывы в срок и между сроками (в фигурных скобках) и направление, откуда дует ветер: С - северный, СВ - северо-восточный, В - восточный, ЮВ - юго-восточный, Ю - южный, ЮЗ - юго-западный, З - западный, СЗ - северо-западный.
Видимость - горизонтальная дальность видимости в метрах или километрах. При видимости от 1 до 10 км при отсутствии осадков обычно наблюдается дымка, при ухудшении видимости до 1 км и менее - туман. В сухую погоду видимость может ухудшаться дымом, пылью или мглою.
Явления - указаны атмосферные явления, наблюдавшиеся в срок или в последний час перед сроком; фигурными скобками обозначены явления, наблюдавшиеся между сроками (за 1-3 часа до срока); квадратными скобками обозначены град или гололедные отложения с указанием их диаметра в мм.
Облачность - указаны через наклонную черту общая и нижняя облачность в баллах и высота нижней границы облаков в метрах; квадратными скобками обозначены формы облаков: Ci - перистые, Cs - перисто-слоистые, Cc - перисто-кучевые, Ac - высококучевые, As - высокослоистые, Sc - слоисто-кучевые, Ns - слоисто-дождевые, Cu - кучевые, Cb - кучево-дождевые. Подробнее классификацию облаков см. в Атласе облаков (PDF).
T - Температура воздуха - температура, измеренная на высоте 2 м над землей.
Td - Температура точки росы - температура, при понижении до которой содержащийся в воздухе водяной пар достигнет насыщения.
f - Относительная влажность воздуха - влажноcть воздуха, измеренная на высоте 2 м над землей.
Te - Эффективная температура - температура, которую ощущает одетый по сезону человек в тени. Характеристика душности погоды. При расчете учитывается влияние влажности воздуха и скорости ветра на теплоощущения человека.
Tes - Эффективная температура на солнце - температура, которую ощущает человек, с поправкой на солнечный нагрев. Характеристика знойности погоды. Зависит от высоты солнца над горизонтом, облачности и скорости ветра. Ночью, в пасмурную погоду, а также при ветре 12 м/с и более поправка равна нулю.
P - Атмосферное давление - приведенное к уровню моря атмосферное давление.
Po - Атмосферное давление - измеренное на уровне метеостанции атмосферное давление.
Tmin - Минимальная температура - минимум температуры воздуха на высоте 2 м над землей.
Tmax - Максимальная температура - максимум температуры воздуха на высоте 2 м над землей.
R - Количество осадков - Количество выпавших осадков за период времени, мм. При наведении курсора мыши на число - период времени, за который выпало указанное количество осадков.
R24 - Количество осадков - Количество выпавших осадков за 24 часа, мм.
S - Снежный покров - Высота снежного покрова, см. При наведении курсора мыши на число - состояние снежного покрова и степень покрытия местности в баллах.